Location: Degersen
(52.2871°N, 9.5716°E)
Time: 23:22:03
(UTC+00:00)

CENTAUR R/B - Pass Details

Date: 20 January 2026
Orbit: 629 x 1551 km, 63.4° (Epoch: 7 February)

Event Time Altitude Azimuth Distance (km) Brightness Sun altitude
Rises 05:32:11 0° 214° (SW) 3,254 5.0 -15.9°
Reaches altitude 10° 05:34:22 10° 212° (SSW) 2,428 4.4 -15.5°
Maximum altitude 05:39:58 72° 130° (SE) 1,019 2.8 -14.7°
Drops below altitude 10° 05:47:09 10° 48° (NE) 3,079 5.5 -13.6°
Sets 05:50:13 0° 46° (NE) 4,190 6.2 -13.2°
